SES-22

Last updated on Mon Oct 20 2025 00:02:50 GMT+0000 (Coordinated Universal Time)

1 52933U 22071A 25292.34068495 .00000000 00000+0 00000+0 0 9991 2 52933 0.0121 217.2301 0000936 353.2071 161.2524 1.00269832 5101
UTC large
Height (km)
Speed (km/s)
/
Latitude / Longitude
Inclination (degrees)
Orbital Period (minutes)
Azimuth
Elevation
Range (km)
Doppler Factor

Next 0 passes for location: London (51.5072 / 0.1276)

Sorry there are no passes over London.